Regional Weather Roundup
Issued by NWS Bismarck, ND

Home | Current Version | Previous Version | Text Only | Print | Product List | Glossary On
Versions: 1 2 3 4 5 6 7 8 9 10 11 12 13 14 15 16 17 18 19 20 21 22 23 24 25 26 27 28 29 30 31 32 33 34 35 36 37 38 39 40 41 42 43 44 45 46 47 48 49 50
000
ASUS43 KBIS 300110
RWRBIS

NWR BROADCAST TEXT
NATIONAL WEATHER SERVICE BISMARCK ND
800 PM CDT FRI APR 29 2016

NOTE: "FAIR" INDICATES FEW OR NO CLOUDS BELOW 12,000 FEET WITH NO
SIGNIFICANT WEATHER AND/OR OBSTRUCTIONS TO VISIBILITY.


CITY           SKY/WX    TMP DP  RH WIND       PRES   REMARKS
WILLISTON      CLEAR     59  26  28 SE12      30.11S
MINOT          CLEAR     61  24  24 E9        30.14S
MINOT AFB      CLEAR     58  25  27 SE16      30.13S
BISMARCK       CLEAR     58  33  39 E10       30.09F
DICKINSON      CLEAR     53  30  41 E12       30.06S
GARRISON         N/A     58  28  32 E15       30.11S
HETTINGER ARPT MOCLDY    53  31  42 E10       30.06S
JAMESTOWN      CLEAR     58  30  34 E12       30.10S
BEACH          CLOUDY    50  32  50 SE6       30.10S
CARRINGTON     FAIR      59  28  31 E13G18    30.15S
HAZEN          FAIR      57  30  35 E7        30.12S
LINTON         MOCLDY    57  37  47 E10       30.10S
MANDAN         FAIR      57  32  38 E12G17    30.10S
OAKES            N/A    N/A N/A N/A MISG        N/A
RUGBY          FAIR      57  28  33 E13G18    30.17R
STANLEY        FAIR      55  23  28 E13       30.16S
WATFORD CITY   FAIR      57  25  28 E13       30.10F
$$

CITY           SKY/WX    TMP DP  RH WIND       PRES   REMARKS
GRAND FORKS    PTCLDY    59  30  33 NE15      30.16S
GRAND FORKS AF CLEAR     58  26  29 E12       30.17R
DEVILS LAKE    CLEAR     57  31  37 E13       30.17S
FARGO          PTCLDY    62  32  32 NE10      30.09F
CANDO          FAIR      57  28  33 E12       30.20S
CAVALIER       FAIR      59  32  36 NE8       30.19S
GRAFTON        FAIR      59  30  33 E12       30.19S
GWINNER        FAIR      59  36  41 E8        30.09F
LANGDON        FAIR      57  28  33 NE12G18   30.19S
ROLLA          FAIR      55  25  30 E10       30.19S
WALHALLA       FAIR      59  30  33 E8        30.20S
$$

CITY           SKY/WX    TMP DP  RH WIND       PRES   REMARKS
ABERDEEN       CLOUDY    54  39  57 SE7       30.08F
MOBRIDGE       CLEAR     56  40  55 E7        30.04S
BUFFALO          N/A     50  33  52 E6        29.98F
RAPID CITY     CLOUDY    43  36  76 E9        30.03R
GLASGOW        CLOUDY    54  35  48 SE13      30.07R
SIDNEY         MOCLDY    57  30  35 E10       30.09F
WOLF POINT     CLOUDY    57  32  38 SE9G16    30.09R
GLENDIVE       CLOUDY    54  34  47 SE9       30.10S
MILES CITY     CLOUDY    51  35  54 SE10      30.05R
BAKER          CLOUDY    49  35  58 E6        30.07S
$$

CITY           SKY/WX    TMP DP  RH WIND       PRES   REMARKS
BILLINGS       CLOUDY    48  33  56 E13       29.98R
GREAT FALLS    CLOUDY    50  34  54 NE13      29.94R
REGINA         MOSUNNY   59  14  17 SE18      30.15R
ESTEVAN        MOCLDY    57  23  26 E10G17    30.15S
$$





USA.gov is the U.S. government's official web portal to all federal, state and local government web resources and services.